GW1769 Weather Reports


time (UTC)temp
F
wind
direction
speed
knots
gust
knots
rain 1hr
in
rain 24hr
in
rain mn
in
humidity
%
barometer
mb
20260504201654 70 232 2.6 2.6 0.00 0.00 0.00 39 1003.1
20260504201152 71 315 1.7 1.7 0.00 0.00 0.00 39 1003.1
20260504200649 71 285 0.9 0.9 0.00 0.00 0.00 38 1003.2
20260504200146 70 185 1.7 2.6 0.00 0.00 0.00 39 1003.5
20260504195642 71 305 1.7 1.7 0.00 0.00 0.00 38 1003.4
20260504195138 72 241 2.6 2.6 0.00 0.00 0.00 39 1003.4
20260504194635 70 227 4.3 6.1 0.00 0.00 0.00 39 1003.6
20260504194131 69 301 2.6 2.6 0.00 0.00 0.00 39 1003.5
20260504193627 71 298 3.5 4.3 0.00 0.00 0.00 39 1003.5
20260504193126 71 10 1.7 2.6 0.00 0.00 0.00 38 1003.4
20260504192623 72 28 1.7 2.6 0.00 0.00 0.00 38 1003.7
20260504192121 70 323 1.7 2.6 0.00 0.00 0.00 38 1003.6
20260504191620 71 290 3.5 4.3 0.00 0.00 0.00 38 1003.7
20260504191115 71 285 2.6 2.6 0.00 0.00 0.00 39 1003.6
20260504190612 71 243 1.7 2.6 0.00 0.00 0.00 38 1003.8
20260504190108 71 286 3.5 5.2 0.00 0.00 0.00 38 1003.8
20260504185605 71 16 2.6 2.6 0.00 0.00 0.00 39 1003.8
20260504185101 71 241 2.6 2.6 0.00 0.00 0.00 38 1003.8
20260504184557 71 301 4.3 5.2 0.00 0.00 0.00 40 1003.8
20260504184052 69 203 2.6 4.3 0.00 0.00 0.00 41 1003.9
20260504183550 68 255 1.7 1.7 0.00 0.00 0.00 44 1003.9
20260504183048 68 295 2.6 5.2 0.00 0.00 0.00 42 1004.1
20260504182544 67 237 2.6 2.6 0.00 0.00 0.00 43 1004.0
20260504182042 68 269 1.7 1.7 0.00 0.00 0.00 42 1003.8
20260504181539 68 163 2.6 4.3 0.00 0.00 0.00 43 1004.1
20260504181037 68 248 0.9 1.7 0.00 0.00 0.00 42 1004.1
20260504180536 68 0 1.7 2.6 0.00 0.00 0.00 43 1003.9
20260504180034 68 38 2.6 2.6 0.00 0.00 0.00 42 1003.9
20260504175531 67 227 1.7 2.6 0.00 0.00 0.00 42 1004.1
20260504175028 68 331 1.7 1.7 0.00 0.00 0.00 45 1004.1
20260504174526 68 181 1.7 2.6 0.00 0.00 0.00 42 1004.1
20260504174022 67 290 2.6 2.6 0.00 0.00 0.00 45 1004.1
20260504173519 66 314 4.3 4.3 0.00 0.00 0.00 43 1004.0
20260504173017 67 218 2.6 5.2 0.00 0.00 0.00 42 1004.1
20260504172513 68 77 3.5 4.3 0.00 0.00 0.00 42 1004.2
20260504172009 68 45 1.7 2.6 0.00 0.00 0.00 44 1004.1
20260504171506 66 190 3.5 4.3 0.00 0.00 0.00 44 1004.4
20260504171003 67 15 1.7 1.7 0.00 0.00 0.00 42 1004.5
20260504170459 66 290 4.3 5.2 0.00 0.00 0.00 44 1004.3
20260504160419 62 192 0.9 1.7 0.00 0.00 0.00 47 1005.1
20260504150843 59 99 2.6 2.6 0.00 0.00 0.00 47 1005.5
20260504150339 59 207 1.7 1.7 0.00 0.00 0.00 49 1005.5
20260504141310 59 9 1.7 1.7 0.00 0.00 0.00 48 1005.5
20260504140806 58 93 0.9 0.9 0.00 0.00 0.00 50 1005.8
20260504140302 58 259 1.7 1.7 0.00 0.00 0.00 48 1005.8
20260504130731 56 241 2.6 2.6 0.00 0.00 0.00 50 1006.1
20260504130226 56 215 5.2 7.0 0.00 0.00 0.00 50 1006.3
20260504120150 54 34 0.9 1.7 0.00 0.00 0.00 53 1006.3
20260504110618 48 58 0.9 0.9 0.00 0.00 0.00 65 1006.4
20260504110114 47 132 0.0 0.9 0.00 0.00 0.00 67 1006.2
20260504100539 44 48 0.0 0.0 0.00 0.00 0.00 73 1006.3
20260504081933 40 45 0.0 0.9 0.00 0.00 0.00 89 1006.5
20260504081430 40 46 0.0 0.0 0.00 0.00 0.00 90 1006.3
20260504080926 41 45 0.0 0.0 0.00 0.00 0.00 90 1006.3
20260504080423 41 45 0.9 0.9 0.00 0.00 0.00 89 1006.5
20260504070350 43 52 0.9 0.9 0.00 0.00 0.00 86 1006.5
20260504050738 43 42 0.0 0.0 0.00 0.00 0.00 76 1006.9
20260504050235 43 47 0.0 0.0 0.00 0.00 0.00 75 1006.6
20260504045732 43 47 0.0 0.0 0.00 0.00 0.00 74 1006.6
20260504045227 44 47 0.0 0.0 0.00 0.00 0.00 74 1007.2
20260504044725 44 47 0.0 0.0 0.00 0.00 0.00 72 1006.9
20260504044222 44 45 0.0 0.0 0.00 0.00 0.00 72 1007.1
20260504043720 44 45 0.0 0.0 0.00 0.00 0.00 72 1007.2
20260504043216 44 42 0.0 0.9 0.00 0.00 0.00 71 1007.4
20260504042714 45 44 0.0 0.0 0.00 0.00 0.00 70 1007.2
20260504042210 45 43 0.0 0.9 0.00 0.00 0.00 69 1007.4
20260504041706 45 32 0.9 0.9 0.00 0.00 0.00 68 1007.5
20260504041202 45 37 0.0 0.0 0.00 0.00 0.00 68 1007.7
20260504040659 45 33 0.9 0.9 0.00 0.00 0.00 67 1007.6
20260504040156 45 23 0.9 0.9 0.00 0.00 0.00 66 1007.5
20260504035652 45 4 0.9 1.7 0.00 0.00 0.00 66 1007.8
20260504035150 45 25 0.9 0.9 0.00 0.00 0.00 66 1007.6
20260504034647 46 332 1.7 1.7 0.00 0.00 0.00 66 1007.6
20260504034144 45 327 1.7 1.7 0.00 0.00 0.00 65 1007.4
20260504033642 45 22 0.9 0.9 0.00 0.00 0.00 66 1007.6
20260504033139 45 342 1.7 1.7 0.00 0.00 0.00 67 1007.5
20260504032635 45 351 0.9 1.7 0.00 0.00 0.00 66 1007.6
20260504032132 45 24 0.9 0.9 0.00 0.00 0.00 67 1007.4
20260504031630 45 10 0.9 0.9 0.00 0.00 0.00 66 1007.4
20260504031126 45 23 0.0 0.9 0.00 0.00 0.00 66 1007.4
20260504030623 45 45 0.0 0.0 0.00 0.00 0.00 66 1007.3
20260504030119 44 35 0.9 0.9 0.00 0.00 0.00 68 1007.2
20260504025616 44 22 0.9 0.9 0.00 0.00 0.00 67 1007.2
20260504025113 43 19 0.9 0.9 0.00 0.00 0.00 72 1007.1
20260504024611 41 31 0.9 1.7 0.00 0.00 0.00 76 1007.0
20260504024107 39 50 0.0 0.0 0.00 0.00 0.00 80 1007.3
20260504023603 39 51 0.0 0.0 0.00 0.00 0.00 80 1007.0
20260504023059 38 51 0.0 0.0 0.00 0.00 0.00 80 1007.2
20260504022556 38 51 0.0 0.0 0.00 0.00 0.00 79 1007.2
20260504022052 38 51 0.0 0.0 0.00 0.00 0.00 78 1007.1
20260504021550 39 51 0.0 0.0 0.00 0.00 0.00 77 1007.3
20260504021046 39 51 0.0 0.0 0.00 0.00 0.00 77 1007.1
20260504020543 39 51 0.0 0.0 0.00 0.00 0.00 76 1007.1
20260504020040 40 51 0.0 0.0 0.00 0.00 0.00 75 1007.0
20260504015536 41 51 0.0 0.0 0.00 0.00 0.00 73 1007.1
20260504015032 42 51 0.0 0.0 0.00 0.00 0.00 71 1007.0
20260504014529 43 51 0.0 0.0 0.00 0.00 0.00 69 1007.2
20260504014026 44 53 0.0 0.0 0.00 0.00 0.00 64 1007.1
20260504013524 44 13 0.9 1.7 0.00 0.00 0.00 62 1007.1
20260504013020 44 20 0.9 0.9 0.00 0.00 0.00 63 1007.1
20260504012518 45 40 0.0 0.0 0.00 0.00 0.00 63 1007.1
20260504012016 46 31 0.9 0.9 0.00 0.00 0.00 60 1007.3
20260504011512 46 20 1.7 1.7 0.00 0.00 0.00 60 1007.1
20260504011008 46 349 0.9 1.7 0.00 0.00 0.00 59 1007.0
20260504010504 46 350 0.9 1.7 0.00 0.00 0.00 59 1006.6
20260504010000 46 350 1.7 1.7 0.00 0.00 0.00 59 1006.7
20260504005457 46 327 1.7 1.7 0.00 0.00 0.00 59 1006.6
20260504004954 46 5 1.7 1.7 0.00 0.00 0.00 58 1006.9
20260504004452 47 29 0.9 1.7 0.00 0.00 0.00 58 1006.6
20260504003949 47 33 0.9 0.9 0.00 0.00 0.00 57 1006.5
20260504003445 47 14 1.7 1.7 0.00 0.00 0.00 56 1006.6
20260504002942 48 332 1.7 1.7 0.00 0.00 0.00 55 1006.6
20260504002439 48 301 2.6 2.6 0.00 0.00 0.00 54 1006.5
20260504001936 48 297 2.6 2.6 0.00 0.00 0.00 54 1006.5
20260504001433 48 299 2.6 2.6 0.00 0.00 0.00 53 1006.5
20260504000930 48 249 1.7 1.7 0.00 0.00 0.00 53 1006.4
20260504000427 49 309 2.6 2.6 0.00 0.00 0.00 52 1006.4
20260503235924 49 310 3.5 5.2 0.00 0.00 0.00 51 1006.2
20260503235422 48 266 1.7 1.7 0.00 0.00 0.00 49 1006.2
20260503234919 49 28 1.7 1.7 0.00 0.00 0.00 48 1006.4
20260503234417 49 307 2.6 2.6 0.00 0.00 0.00 49 1006.3
20260503233914 49 329 2.6 2.6 0.00 0.00 0.00 48 1006.5
20260503233411 49 351 1.7 1.7 0.00 0.00 0.00 47 1006.0
20260503232907 49 11 1.7 1.7 0.00 0.00 0.00 47 1006.1
20260503232405 49 326 1.7 1.7 0.00 0.00 0.00 46 1006.1
20260503231902 50 10 1.7 1.7 0.00 0.00 0.00 46 1005.8
20260503231359 50 309 2.6 2.6 0.00 0.00 0.00 45 1006.0
20260503230855 50 305 1.7 1.7 0.00 0.00 0.00 45 1005.9
20260503230352 50 356 2.6 5.2 0.00 0.00 0.00 44 1005.7
20260503225850 51 289 3.5 4.3 0.00 0.00 0.00 43 1005.9
20260503225345 51 295 4.3 6.1 0.00 0.00 0.00 43 1005.7
20260503224842 51 296 4.3 5.2 0.00 0.00 0.00 43 1005.5
20260503224339 51 328 3.5 6.1 0.00 0.00 0.00 42 1005.6
20260503223837 51 275 2.6 4.3 0.00 0.00 0.00 42 1005.4
20260503223335 51 311 3.5 4.3 0.00 0.00 0.00 42 1005.6
20260503222830 51 39 2.6 2.6 0.00 0.00 0.00 41 1005.4
20260503222329 51 298 2.6 2.6 0.00 0.00 0.00 39 1005.5
20260503221826 51 307 4.3 5.2 0.00 0.00 0.00 38 1005.7
20260503221325 51 152 3.5 5.2 0.00 0.00 0.00 38 1005.4
20260503220820 51 333 2.6 2.6 0.00 0.00 0.00 38 1005.4
20260503220318 52 311 3.5 6.1 0.00 0.00 0.00 36 1005.3
20260503215814 52 282 5.2 7.0 0.00 0.00 0.00 36 1005.5
20260503215312 52 313 3.5 4.3 0.00 0.00 0.00 36 1005.2
20260503214809 52 305 2.6 7.0 0.00 0.00 0.00 36 1005.2
20260503214306 52 310 3.5 6.1 0.00 0.00 0.00 35 1005.4
20260503213804 52 15 4.3 6.1 0.00 0.00 0.00 35 1005.3
20260503213301 53 340 2.6 4.3 0.00 0.00 0.00 34 1005.5
20260503212758 53 304 2.6 4.3 0.00 0.00 0.00 34 1005.3
20260503212256 53 41 3.5 6.1 0.00 0.00 0.00 34 1005.3
20260503211753 52 261 4.3 5.2 0.00 0.00 0.00 35 1005.4
20260503211249 52 317 4.3 4.3 0.00 0.00 0.00 33 1005.3
20260503210744 53 330 4.3 6.1 0.00 0.00 0.00 33 1005.4
20260503210242 52 347 1.7 1.7 0.00 0.00 0.00 34 1005.2
20260503205742 52 335 4.3 5.2 0.00 0.00 0.00 33 1005.5
20260503205239 53 332 2.6 4.3 0.00 0.00 0.00 34 1005.4
20260503204735 53 348 1.7 1.7 0.00 0.00 0.00 36 1005.4
20260503204233 54 4 1.7 1.7 0.00 0.00 0.00 35 1005.4
20260503203730 53 13 2.6 4.3 0.00 0.00 0.00 38 1005.7
20260503203228 52 314 2.6 4.3 0.00 0.00 0.00 35 1005.5
20260503202725 53 306 4.3 5.2 0.00 0.00 0.00 36 1005.4
20260503202223 54 338 5.2 6.1 0.00 0.00 0.00 35 1005.5